Wind_Speed
70 69 68 63 59 54 54 52 46 39 41 40 38 38 33 37 37 35 40 38 36 32 35 31 27 25 25 25 25 24 24 24 22 22 23 23 24 25 25 24 22 20 21 21
71 73 63 60 59 54 55 54 50 41 46 39 38 41 32 37 35 30 37 42 39 38 38 32 30 27 25 26 25 26 25 25 25 25 25 26 27 26 28 26 24 25 26 24
64 69 65 63 61 57 57 53 45 48 44 42 42 41 34 28 33 34 33 42 42 41 39 35 32 29 27 25 27 28 28 28 28 28 29 29 28 29 30 30 29 30 27 26
63 69 66 64 61 58 59 56 47 49 44 46 46 47 40 29 32 36 32 35 44 41 41 37 34 32 28 28 30 30 32 30 29 30 29 29 30 30 32 33 32 32 30 30
67 66 65 65 62 59 59 54 47 48 44 48 46 51 39 35 36 29 27 34 40 44 43 41 36 33 33 35 34 34 33 32 31 31 30 30 31 32 35 36 36 36 34 33
69 67 65 63 62 60 57 52 49 48 46 50 46 49 45 40 33 31 31 27 37 45 43 42 40 40 39 38 37 36 35 34 33 34 34 33 34 35 37 38 38 39 38 37
73 70 66 65 63 62 60 56 52 50 50 54 49 53 49 38 31 32 34 24 25 33 42 45 44 43 41 40 40 39 39 38 38 39 38 37 39 39 40 43 42 42 41 42
71 73 70 66 64 59 59 58 55 56 51 50 50 53 53 37 29 27 39 25 27 29 25 29 36 49 43 45 44 45 43 42 41 44 43 43 43 44 44 46 47 45 44 44
72 73 69 68 63 61 63 61 55 52 51 52 53 48 52 37 31 33 35 35 31 30 32 33 32 32 35 49 46 47 48 47 47 43 45 47 46 46 47 48 50 49 48 47
72 72 71 67 64 64 63 60 56 55 54 52 50 50 52 43 35 33 32 34 35 35 35 36 38 38 37 38 40 50 49 50 50 47 49 49 50 49 50 51 52 53 50 51
70 72 73 68 66 62 62 59 59 57 55 52 49 49 47 40 29 31 32 34 34 35 36 38 39 37 36 39 42 46 52 53 52 54 53 53 54 52 53 55 55 56 56 55
70 74 72 71 67 63 64 62 59 55 53 49 50 45 43 41 39 35 35 37 39 41 40 41 41 40 40 40 35 45 51 56 57 60 58 56 56 57 56 59 58 59 58 60
71 74 71 70 67 67 65 61 56 55 57 54 54 54 47 48 47 42 39 41 44 45 44 43 43 44 41 40 37 36 40 45 62 64 63 62 60 59 60 61 62 64 62 62
71 70 71 69 60 63 62 64 62 59 59 53 54 45 46 48 48 46 43 43 44 49 50 48 47 46 45 44 44 44 47 47 45 46 48 64 64 63 65 66 65 66 65 65
62 66 70 70 66 61 56 51 50 53 58 57 49 52 50 49 49 48 48 48 48 49 50 52 52 51 51 49 45 46 46 47 47 48 50 49 58 68 67 68 69 69 69 68
62 65 62 66 66 63 60 55 52 51 54 57 54 53 49 48 53 52 57 57 53 49 51 54 54 54 52 53 52 51 52 51 51 52 50 50 50 65 70 70 70 70 70 69
55 57 58 59 63 63 61 57 54 48 45 43 48 43 41 52 52 55 56 53 53 56 54 51 53 54 55 57 55 52 51 49 50 50 49 48 51 60 68 70 68 68 70 70
51 48 53 54 54 52 49 46 45 47 44 46 47 45 47 51 54 56 54 52 52 53 55 56 56 56 56 58 58 56 55 54 53 51 52 50 52 59 67 65 66 66 67 67
50 42 44 41 38 41 44 43 40 38 36 39 44 44 47 50 56 53 56 56 56 56 55 53 54 55 56 57 60 58 55 54 55 57 55 53 56 58 62 63 63 62 62 62
40 36 37 35 37 39 39 38 37 38 40 39 38 39 40 42 46 48 50 54 54 55 55 55 55 55 56 56 56 58 56 57 58 60 61 60 59 58 60 64 64 64 56 53
45 43 39 37 34 36 36 34 33 35 36 35 34 36 39 41 42 44 48 50 51 50 50 51 51 52 53 54 54 55 58 58 58 61 63 64 64 64 64 55 54 49 48 49
36 37 38 35 30 29 31 31 29 29 30 34 37 40 43 44 43 44 48 50 52 51 51 51 50 50 51 51 53 52 54 56 58 58 62 67 68 67 67 64 58 57 59 56
38 33 28 27 26 25 27 32 35 37 34 32 35 41 44 44 43 42 44 45 46 45 46 46 47 47 46 49 52 54 54 54 55 59 61 62 63 66 65 71 60 56 49 53
39 39 38 36 33 32 35 35 37 34 32 31 29 33 37 40 42 43 44 44 42 40 42 43 42 43 43 44 44 45 49 49 51 53 54 56 58 60 61 60 55 55 56 58
40 39 38 36 37 38 40 36 34 37 37 34 33 35 34 33 32 32 36 39 40 40 41 40 37 39 40 41 42 43 43 43 44 47 49 51 52 54 56 57 57 54 51 51
44 43 42 42 41 39 41 42 42 41 37 36 38 39 39 39 38 36 35 35 36 37 40 40 40 41 41 42 43 44 46 46 46 45 46 47 51 57 59 59 60 62 60 60
Wind_Direction
222 223 223 224 226 227 229 231 235 234 239 237 240 242 239 235 232 235 228 230 232 234 237 238 237 238 241 241 235 231 233 233 235 239 244 240 237 232 228 233 240 250 258 264
222 225 223 225 227 227 231 232 233 234 235 235 239 239 240 232 229 239 237 229 231 233 239 239 242 240 237 241 243 241 235 237 235 234 236 239 238 233 232 241 247 252 258 269
226 227 222 223 225 225 227 230 227 234 233 238 237 236 237 243 236 237 237 234 229 235 238 240 244 246 242 241 244 245 241 238 238 238 235 234 236 235 237 241 246 253 262 272
222 224 222 223 224 225 228 227 227 232 230 236 238 238 236 238 243 238 241 242 239 236 241 240 242 248 252 250 247 248 249 244 241 241 242 242 241 241 242 244 250 257 264 270
219 223 222 222 223 223 226 226 224 228 228 234 236 246 228 238 243 252 260 251 243 243 240 243 241 241 245 246 247 248 250 254 255 254 250 251 254 253 249 250 254 258 263 270
215 220 220 221 220 222 225 224 225 228 230 233 235 242 233 232 239 253 258 248 246 242 242 244 245 242 240 245 250 252 254 257 258 259 259 258 259 260 260 255 254 259 264 269
213 215 218 218 218 219 221 220 224 227 228 235 233 238 238 234 242 249 255 258 256 243 233 238 242 245 245 246 249 250 253 254 258 259 259 259 258 256 258 259 257 257 262 269
214 212 215 217 218 221 222 225 224 227 229 234 239 239 243 241 243 243 243 257 260 261 251 245 249 245 250 249 248 249 250 253 254 257 259 260 259 260 259 261 261 261 264 268
217 214 214 215 218 218 221 226 227 230 231 233 240 242 249 241 241 240 245 255 251 251 253 251 258 263 258 248 249 252 252 251 252 257 259 260 259 259 259 260 262 263 266 268
216 215 214 214 214 217 221 225 226 229 231 232 236 242 246 250 243 242 244 245 252 256 262 265 265 268 271 270 264 251 253 254 255 256 261 261 260 259 260 261 264 266 265 268
217 212 216 218 216 216 223 223 224 224 228 232 235 240 245 250 241 245 244 248 253 255 262 263 266 269 270 268 263 257 249 250 252 256 256 257 259 259 259 261 263 267 269 269
217 216 219 219 220 219 222 220 230 231 234 235 240 245 253 258 252 239 243 241 243 245 248 253 263 266 268 272 268 256 252 249 250 252 257 257 258 259 262 263 264 265 267 269
218 215 216 221 222 228 225 221 227 231 233 232 237 245 244 252 253 251 241 242 241 243 246 247 250 259 263 268 266 258 255 261 257 255 257 259 260 260 263 264 265 266 267 269
220 220 221 220 222 225 223 222 229 238 237 234 236 237 245 245 250 251 251 242 242 240 238 241 246 251 257 260 259 258 262 267 267 266 268 262 262 264 264 266 267 268 269 270
222 223 222 223 228 231 235 240 244 248 235 244 231 233 240 251 250 251 257 257 250 245 241 242 243 244 247 250 253 257 260 263 264 265 263 264 261 260 264 267 268 267 268 269
224 224 229 230 232 234 235 239 244 243 238 245 235 233 246 253 252 255 259 260 257 254 249 246 244 246 247 249 248 248 252 256 260 261 260 263 264 261 261 265 269 268 270 270
220 222 228 229 233 236 237 238 241 247 249 250 247 240 257 249 254 255 257 261 263 261 262 261 258 254 255 255 253 255 254 254 257 258 259 261 264 264 264 264 265 268 268 268
225 226 227 226 227 231 236 236 241 244 246 251 250 251 258 256 260 256 260 260 259 261 263 264 266 267 266 264 260 260 259 260 261 260 260 259 261 264 262 263 264 266 267 269
219 222 216 215 222 232 236 239 244 250 252 255 257 258 260 262 260 266 266 264 263 264 265 266 268 269 270 269 269 268 271 270 266 262 260 260 262 263 264 266 269 266 268 269
195 197 204 214 223 234 237 240 246 249 251 252 254 255 257 260 263 262 269 268 269 268 268 268 269 271 273 272 272 272 271 271 271 268 268 265 264 265 265 266 270 271 260 262
201 206 210 215 215 224 230 235 240 244 250 252 255 256 256 256 258 261 265 267 268 269 270 271 271 272 273 273 273 270 268 267 267 268 268 266 266 267 268 269 272 270 272 272
208 207 206 205 209 220 229 241 246 249 252 253 254 256 257 257 255 256 258 261 264 266 267 270 271 271 272 272 273 270 269 268 267 267 267 266 264 267 265 263 266 266 263 270
202 206 218 228 231 230 234 233 237 234 238 249 259 260 258 256 257 257 258 260 262 265 268 271 272 273 274 273 272 271 268 266 265 263 261 262 265 267 269 265 271 264 263 263
214 216 217 214 217 219 224 229 228 237 251 255 268 268 265 263 261 262 266 267 269 274 277 277 279 281 281 279 274 269 264 265 266 268 270 268 269 271 273 275 271 270 271 273
218 217 221 219 225 223 226 229 236 243 248 257 268 269 268 269 267 266 267 269 271 273 275 277 278 279 277 277 275 272 271 273 277 278 278 278 279 278 275 273 272 272 271 270
215 219 222 223 225 225 227 231 236 242 252 260 265 267 265 266 267 268 271 272 274 275 273 273 274 274 275 277 278 279 279 278 278 278 279 279 280 280 279 277 275 273 271 270
Height
5722 5730 5740 5752 5760 5768 5773 5777 5783 5791 5791 5794 5799 5802 5806 5810 5813 5815 5818 5822 5826 5831 5829 5833 5837 5841 5844 5846 5848 5850 5852 5854 5857 5859 5861 5863 5863 5866 5868 5869 5870 5871 5870 5869
5711 5722 5740 5745 5752 5760 5764 5771 5778 5784 5783 5789 5792 5797 5801 5803 5808 5811 5814 5816 5822 5824 5825 5829 5834 5836 5840 5843 5845 5847 5848 5850 5852 5854 5856 5858 5859 5862 5864 5866 5867 5867 5866 5866
5711 5725 5728 5734 5742 5752 5756 5763 5772 5776 5780 5781 5786 5791 5797 5801 5802 5805 5807 5811 5814 5817 5820 5826 5829 5834 5836 5839 5841 5843 5844 5845 5848 5850 5851 5853 5855 5858 5860 5860 5861 5861 5862 5862
5701 5704 5718 5726 5735 5746 5749 5757 5766 5766 5775 5775 5780 5781 5790 5797 5797 5800 5804 5806 5810 5813 5816 5821 5824 5829 5834 5836 5836 5838 5840 5842 5843 5845 5848 5851 5851 5853 5854 5854 5856 5856 5857 5856
5694 5698 5709 5717 5730 5736 5742 5751 5760 5760 5766 5768 5774 5773 5789 5791 5793 5799 5801 5802 5805 5808 5810 5815 5820 5824 5827 5828 5832 5833 5835 5838 5842 5844 5845 5847 5850 5850 5848 5849 5851 5851 5851 5850
5677 5689 5699 5712 5720 5727 5735 5746 5751 5754 5758 5760 5769 5769 5779 5785 5793 5793 5794 5794 5796 5799 5805 5809 5814 5815 5817 5822 5826 5828 5830 5834 5836 5839 5841 5842 5842 5844 5844 5844 5843 5844 5844 5843
5665 5677 5690 5700 5708 5714 5724 5734 5740 5744 5748 5751 5759 5759 5769 5780 5785 5787 5789 5790 5791 5792 5795 5800 5803 5807 5812 5815 5819 5821 5824 5827 5829 5831 5833 5834 5834 5834 5835 5835 5835 5835 5836 5836
5658 5666 5677 5690 5701 5715 5720 5724 5732 5735 5741 5747 5750 5753 5757 5774 5779 5781 5783 5785 5787 5789 5791 5794 5796 5800 5803 5806 5810 5812 5816 5820 5820 5822 5825 5825 5826 5827 5827 5827 5826 5827 5828 5828
5653 5662 5672 5681 5692 5704 5707 5714 5726 5731 5736 5739 5743 5754 5752 5767 5772 5775 5776 5779 5781 5782 5784 5787 5789 5792 5795 5797 5800 5803 5806 5808 5810 5814 5815 5816 5817 5817 5818 5818 5818 5818 5819 5818
5648 5658 5663 5672 5682 5690 5700 5709 5717 5722 5727 5731 5737 5741 5745 5754 5764 5769 5771 5773 5774 5776 5778 5781 5783 5785 5787 5788 5790 5793 5797 5800 5802 5803 5805 5807 5807 5807 5808 5808 5809 5808 5810 5807
5640 5649 5656 5664 5670 5685 5691 5698 5705 5712 5717 5722 5729 5734 5739 5745 5756 5761 5763 5765 5767 5769 5771 5772 5774 5777 5779 5779 5780 5783 5785 5788 5790 5791 5793 5794 5796 5797 5797 5797 5798 5798 5799 5797
5630 5636 5647 5658 5668 5677 5682 5689 5697 5703 5711 5717 5722 5732 5736 5739 5745 5752 5753 5756 5757 5759 5761 5762 5763 5766 5768 5769 5770 5773 5775 5777 5779 5781 5781 5783 5784 5786 5786 5786 5785 5785 5786 5784
5623 5631 5640 5647 5657 5661 5671 5683 5689 5692 5697 5707 5712 5725 5730 5729 5732 5738 5744 5746 5749 5750 5750 5751 5752 5753 5756 5758 5760 5763 5766 5767 5770 5770 5771 5772 5774 5774 5774 5774 5774 5774 5773 5772
5618 5627 5635 5643 5656 5663 5668 5673 5678 5681 5688 5705 5706 5719 5718 5721 5721 5723 5728 5734 5736 5738 5741 5743 5746 5746 5746 5749 5752 5754 5755 5756 5757 5757 5759 5760 5762 5762 5762 5761 5761 5760 5760 5758
5612 5619 5627 5635 5643 5651 5659 5664 5669 5672 5688 5683 5703 5704 5712 5707 5711 5714 5717 5719 5722 5727 5731 5734 5736 5736 5737 5737 5739 5741 5742 5744 5746 5746 5746 5745 5746 5747 5748 5748 5747 5746 5745 5744
5605 5613 5621 5628 5635 5641 5647 5653 5659 5668 5679 5676 5692 5694 5697 5699 5700 5704 5701 5702 5709 5716 5720 5723 5725 5727 5728 5728 5728 5728 5730 5731 5731 5731 5731 5731 5732 5731 5732 5733 5733 5733 5732 5731
5599 5607 5616 5622 5626 5631 5637 5649 5656 5665 5667 5676 5677 5694 5685 5687 5690 5690 5693 5698 5702 5702 5705 5709 5711 5714 5717 5717 5718 5718 5718 5718 5718 5718 5717 5717 5717 5717 5717 5717 5717 5718 5718 5716
5590 5597 5605 5610 5616 5622 5638 5642 5650 5655 5660 5663 5671 5678 5678 5677 5677 5681 5683 5687 5688 5691 5692 5694 5697 5699 5702 5704 5706 5707 5707 5706 5705 5705 5703 5703 5702 5702 5702 5703 5702 5702 5702 5701
5581 5588 5596 5603 5616 5623 5628 5636 5642 5646 5652 5654 5661 5664 5664 5666 5669 5676 5668 5675 5677 5678 5680 5682 5683 5684 5686 5688 5690 5692 5692 5692 5692 5690 5689 5689 5688 5688 5687 5686 5686 5685 5686 5685
5573 5583 5592 5600 5607 5616 5622 5628 5632 5635 5640 5644 5650 5652 5653 5658 5663 5659 5662 5661 5662 5665 5667 5668 5669 5670 5671 5674 5677 5677 5677 5677 5676 5675 5676 5676 5675 5674 5673 5672 5670 5668 5667 5667
5568 5574 5583 5592 5601 5608 5614 5620 5625 5626 5633 5634 5639 5642 5646 5648 5652 5652 5650 5650 5651 5652 5653 5654 5656 5657 5658 5660 5661 5662 5662 5661 5661 5661 5661 5662 5661 5659 5659 5658 5658 5655 5654 5652
5565 5572 5580 5589 5596 5602 5606 5609 5615 5617 5621 5627 5631 5635 5636 5637 5639 5641 5640 5640 5640 5641 5642 5642 5642 5642 5643 5645 5645 5645 5645 5647 5647 5646 5646 5646 5646 5644 5643 5644 5644 5643 5641 5639
5564 5574 5581 5588 5593 5596 5601 5605 5608 5611 5615 5620 5623 5625 5626 5627 5629 5630 5631 5631 5631 5630 5630 5631 5631 5632 5632 5632 5632 5632 5631 5631 5630 5629 5629 5628 5628 5627 5627 5629 5627 5627 5625 5624
5558 5566 5572 5579 5584 5588 5592 5597 5601 5605 5609 5611 5612 5614 5614 5615 5617 5619 5620 5621 5621 5622 5622 5621 5621 5620 5620 5621 5621 5620 5620 5618 5617 5617 5616 5615 5614 5613 5613 5613 5613 5612 5612 5611
5553 5561 5567 5573 5577 5581 5585 5590 5594 5596 5599 5602 5604 5605 5606 5606 5608 5609 5610 5610 5610 5610 5610 5610 5610 5609 5609 5608 5608 5607 5606 5605 5604 5604 5603 5601 5600 5600 5599 5598 5597 5596 5594 5593
5546 5553 5558 5563 5569 5575 5578 5579 5582 5586 5590 5594 5596 5597 5598 5599 5600 5601 5602 5602 5601 5601 5601 5600 5600 5600 5599 5598 5597 5596 5595 5594 5593 5592 5590 5589 5588 5588 5587 5586 5584 5583 5581 5580